Hourly Weather Roundup
Issued by NWS Central Illinois

Home | Current Version | Previous Version | Text Only | Print | Product List | Glossary On
Versions: 1 2 3 4 5 6 7 8 9 10 11 12 13 14 15 16 17 18 19 20 21 22 23 24 25 26 27 28 29 30 31 32 33 34 35 36 37 38 39 40 41 42 43 44 45 46 47 48 49 50
000
NZUS43 KILX 030810
HWRILX

AREA WEATHER ROUNDUP
NATIONAL WEATHER SERVICE, LINCOLN IL
300 AM CDT THU SEP 03 2015


CITY           SKY/WX    TMP DP  RH WIND       PRES   REMARKS
BLOOMINGTON    CLEAR     71  69  93 SW6       30.00F
CHAMPAIGN      CLEAR     70  66  87 SW5       30.00S
DANVILLE       PTCLDY    69  68  97 CALM      29.97S FOG
DECATUR        CLEAR     73  66  78 SW6       30.00S
EFFINGHAM      CLEAR     68  65  91 CALM      30.02S
FLORA          CLEAR     66  64  95 CALM      30.01S FOG
GALESBURG      CLEAR     71  67  89 S3        29.96S
JACKSONVILLE   CLEAR     74  68  82 S5        29.97S
LACON          CLOUDY    72  67  84 CALM      29.96R
LAWRENCEVILLE  CLEAR     68  67  96 S3        30.01R FOG
LITCHFIELD     CLEAR     69  67  90 S5        30.00S
$$


CITY           SKY/WX    TMP DP  RH WIND       PRES   REMARKS
LINCOLN        PTCLDY    69  66  88 CALM      29.98S
MACOMB         PTCLDY    71  68  90 S3        29.98S
MATTOON          N/A     74  66  76 SW6       30.00S
MT CARMEL AP   CLEAR     64  63  94 CALM      30.01R
OLNEY-NOBLE AP FOG       66  66 100 CALM      30.01R VSB 1/2
PARIS          CLEAR     67  66  97 CALM      30.01S
PEORIA         CLEAR     73  67  81 S3        29.97F
PONTIAC        PTCLDY    70  69  95 CALM      29.98S
RANTOUL        CLEAR     73  69  87 SW6       29.99S
ROBINSON       CLEAR     65  64  97 CALM      30.01S FOG
SPRINGFIELD    CLEAR     72  68  87 S3        29.98F
TAYLORVILLE    CLEAR     68  66  94 S3        30.00R
$$

...REGIONAL REPORTS...


CITY           SKY/WX    TMP DP  RH WIND       PRES   REMARKS
CHICAGO O`HARE PTCLDY    75  69  81 SW5       29.95S
KANKAKEE       MOCLDY    73  68  84 W8        29.99S
MOLINE         PTCLDY    76  68  76 SW6       29.93F
MOUNT STERLING CLEAR     69  67  91 SW5       29.97S
MOUNT VERNON   CLEAR     66  61  82 CALM      30.01S
PITTSFIELD     PTCLDY    74  68  83 S3        29.98F
QUINCY         PTCLDY    73  68  84 CALM      29.97S
ROCKFORD       MOCLDY    73  68  84 S3        29.96S
$$


CITY           SKY/WX    TMP DP  RH WIND       PRES   REMARKS
BURLINGTON     MOCLDY    74  70  87 S6        29.94F
CEDAR RAPIDS   CLEAR     72  70  93 S7        29.92F
DES MOINES     PTCLDY    75  68  78 S7        29.90S
KIRKSVILLE     PTCLDY    73  67  81 S6        29.96F
OTTUMWA        CLEAR     71  69  93 S7        29.92S
ST LOUIS       CLEAR     79  69  71 SW5       29.99S HX  81
$$


CITY           SKY/WX    TMP DP  RH WIND       PRES   REMARKS
TERRE HAUTE    PTCLDY    64  63  96 CALM      30.01R FOG
EVANSVILLE     CLEAR     71  68  90 CALM      30.01S FOG
INDIANAPOLIS   PTCLDY    71  67  87 CALM      30.01R
LAFAYETTE      PTCLDY    69  67  93 CALM      29.99S
MADISON        CLEAR     73  68  84 CALM      29.92S
MILWAUKEE      PTCLDY    74  69  85 SW8       29.93R
$$





USA.gov is the U.S. government's official web portal to all federal, state and local government web resources and services.